Погода в Сухиничи

Хотите узнать прогноз погоды в Сухиничи? Тогда Вам сюда: Погода в Сухиничи

Поиск расширенной информации на нашем сайте:

Полезная информация:

Новости сайта



02.01.2020
Опубликован Долгосрочный прогноз погоды по городам России и ближнего зарубежья на январь 2020 года.
Карты: Прогноз на январь и февраль 2020 года, Сравнение прогнозируемой аномалии приземной температуры воздуха на январь 2020 года по разным моделям.




Погода в Сухиничи - сегодня

Время (UTC), дата Ветер
(°,м/с) 
Видим.   Явления Облачность Т
(°С)
Тd
(°С)
f(%) Тe
(°С)
Pmin
(гПа)
dP
(гПа)
Po
(мм)
O2
(г/м3)
Тmin Tmax R s Состояние
почвы
18 24.01.20 250 (З) 4600 м  слаб. снег{ливн. осадки, морось}  10/10 300 м 
[Frnb|Ns]
+0.4 -0.2 96 -1  1005.1  -1.2  732  294    +0.5     
21 24.01.20 260 (З) 4600 м  слаб. морось{ливн. осадки}  10/10 300 м 
[Frnb]
+0.7 +0 95 -2  1004.6  -0.5  731  294           
00 25.01.20 250 (З) 4600 м  в посл. час морось{ливн. осадки}  9/9 600 м 
[Sc]
+1 +0.4 96 -1  1003.9  -0.6  731  293           
03 25.01.20 270 (З) 5000 м  в посл. час ливневой дождь  9/9 600 м кучево-дожд. 
[Cb cap]
+1.4 +0.7 95 1003.3  -0.5  731  293  -0.1       
06 25.01.20 260 (З) 5000 м  в посл. час ливневой дождь  9/9 600 м кучево-дожд. 
[Cb cap]
+1.3 +0.6 95 1003.4  0.1  731  293  +0.4    мокрый или
старый снег
50-90% 
09 25.01.20 260 (З) 7000 м  в посл. час морось  10/10 300 м 
[St]
+1.8 +0.9 94 -1  1002.6  -0.7  730  292           
12 25.01.20 260 (З) 4{10}  15000 м  в посл. час ливневой дождь{морось}  6/5 600 м верхняя 
[Sc diur, vesp|Ci fib]
+2.2 +0.5 88 1001.9  -0.7  730  291           
15 25.01.20 270 (З) 5-10{10}  12000 м  в посл. час ливневой дождь  8/8 600 м 
[Sc]
+1.1 -0.4 90 -2  1002.3  0.4  730  293      0.7     
18 25.01.20 290 (З) 4{12}  10 км  в посл. час ливневой снег  9/9 600 м кучево-дожд. 
[Cb cap]
-0.3 -1.8 90 -3  1005.3  2.7  732  295    +2.5  0.6     
21 25.01.20 280 (З) 3{10}  16000 м    ясно 
-1.3 -3.8 83 -3  1007.7  2.2  734  297           
00 26.01.20 290 (З) 20000 м    ясно 
-1.7 -5.9 73 -4  1010.5  2.6  736  299           
03 26.01.20 300 (СЗ) 20000 м    ясно 
-1.9 -6.5 71 -5  1012.6  737  300  -2.7    0.3     
06 26.01.20 260 (З) 10 км    ясно 
-4.9 -6.2 91 -6  1014.9  739  304  -5.2      равномерный
сухой снег
100% 
09 26.01.20 270 (З) 20000 м    10/10 2000 м 
[Ns]
-1.6 -4.2 82 -4  1016.6  740  300           
12 26.01.20 260 (З) 23000 м    9/5 600 м средняя 
[Sc|Ac As]
+0.1 -4.1 73 -2  1015.5  -0.9  739  298           
15 26.01.20 250 (З) 23000 м    8/8 2000 м средняя 
[Ac As]
+0.3 -3.5 76 -2  1014.4  -1  739  298           
18 26.01.20 250 (З) 21000 м    9/9 2000 м средняя 
[Ac As]
+0.6 -2.8 78 -2  1013  -1.3  738  297    +0.6       
21 26.01.20 260 (З) 4-10{11}  20000 м    10/10 2000 м 
[Ac As]
+1.2 -1.6 82 -1  1012.7  -0.2  737  296           
00 27.01.20 260 (З) 16000 м    8/8 600 м 
[Sc]
+1.1 -1.2 85 -1  1012.9  0.2  738  296           
03 27.01.20 270 (З) 10 км  слаб. ливневой снег  9/9 300 м кучево-дожд. 
[Cb cap]
+0.6 -0.5 92 -1  1013.4  0.4  738  297  +0.2    0.0     
06 27.01.20 260 (З) 10 км  в посл. час ливневой снег  9/9 300 м кучево-дожд. 
[Cb cap]
+0.5 -0.3 94 -1  1014.3  0.9  739  297  +0.4    0.0  мокрый или
старый снег
50-90% 
09 27.01.20 260 (З) 10 км  в посл. час ливневой снег  9/9 300 м кучево-дожд. 
[Cb cap]
+1.2 -0.2 90 1014.9  0.6  739  296           
12 27.01.20 260 (З) 21000 м  {ливн. осадки}  9/8 600 м средняя 
[Sc|Ac As]
+2 -1.3 79 +1  1014.4  -0.4  739  296           
15 27.01.20 тихо ()   12000 м    9/9 600 м кучево-дожд. 
[Cb cap]
+0.3 -1.4 88 1014.8  0.3  739  298      0.0     
18 27.01.20 220 (ЮЗ) 7000 м  слаб. снег  10/10 300 м 
[Frnb|Ns]
-0.1 -1 94 +1  1014.4  -0.5  739  298    +2  0.4     
Время (UTC), дата Ветер
(°,м/с) 
Видим.   Явления Облачность Т
(°С)
Тd
(°С)
f(%) Тe
(°С)
Pmin
(гПа)
dP
(гПа)
Po
(мм)
O2
(г/м3)
Тmin Tmax R s Состояние
почвы

Для получения пояснительной информации подведите курсор к названию столбца.

ПОГОДА в Сухиничи - архив

Всё, что Вы хотите узнать о погоде в Сухиничи - удобно и подробно!

Выберите нужную дату (начиная с 1 января 2019* года) и нажмите кнопку "Найти".
Будут отображены архивные сводки погоды по пункту Сухиничи, начиная с указанной даты.


Отображать данные в формате CSV (для использования в таблицах Excel)


Внимание! Наш архив погоды предназначен исключительно для личного некоммерческого использования в познавательных целях. Если Вам необходимы официальные справки о состоянии погоды (для производственных, юридических, коммерческих и т.п. целей), обращайтесь в органы Росгидромета.

*Примечание: данная дата относится к архиву по метеостанциям СССР (Россия, СНГ, Балтия).
Архив по метеостанциям Зарубежной Европы и Азии (кроме Китая) хранится 10 дней, по другим регионам земного шара (Китай, Африка, Америка, Австралия, Океания) - 1 день.

Сухиничи - район местоположения метеостанции


Название, широта, долгота, высота метеостанции:
Сухиничи 54.1°ш. 35.3°д. 238 м над ур. моря [Российская Федерация]

Дополнительная информация

В oтличие oт бoльшинства пoгoдных сайтoв мы публикуем пoдрoбную метеoинфoрмацию в детальнoм прoфессиoнальнoм фoрмате.

Характеристики температуры и влажнoсти вoздуха измеряются на высoте 2 м в тени вдали oт зданий и деревьев.
Скoрoсть ветра измеряется на высoте 10 м (на урoвне рoста челoвека скoрoсть ветра ниже в 1.5-2 раза). Если метеoстанция нахoдится в гoрoде или в лесу, тo скoрoсть ветра занижена на 2-4 м/с пo сравнению с oткрытым местoм. Скoрoсть ветра над акватoриями крупных рек и oзёр, а также на вершинах хoлмoв на 2-5 м/с выше, чем в oбычных услoвиях.
Атмoсфернoе давление в разных тoчках местнoсти мoжет значительнo oтличаться oт давления на метеoстанции, в зависимoсти oт услoвий рельефа (при пoдъёме на 10 м давление пoнижается примернo на 1 мм рт.ст.).